Showing default

HAWK-8A, 59443

Orbit data source: Space-Track

HAWK-8A, 59443 is a payload satellite owned by HawkEye 360 (US) in LEO that was launched on Sun, 07 Apr 2024 UTC via an FALCON 9 launch vehicle from the Air Force Eastern Test Range (AFETR). Payload-class satellites include a variety of spacecraft equipped with specific instruments for various scientific and technological missions. These include communications satellites like Starlink; space stations such as the ISS; scientific satellites like the Hubble; Earth observation satellites from companies like Planet Labs, Umbra, and HawkEye 360; GPS; miniature CubeSats for education and research; and military/defense satellites.

Loading next visibility...
Identifier
59443, 2024-066B
Orbit
LEO
Country
Flag of USUS
Related business
Manufacturer
UTIAS-SFL
Mission
Operational Commercial Sigint
Bus & Motor
HAWK2G, Unknown motor
Mass
31 kg wet, 30 kg dry
Launch date (UTC)
2024-04-07 (2 years ago)
Launch vehicle
FALCON 9
Launch site
Air Force Eastern Test Range (AFETR)
Object type
Payload
Rocket body
Debris
Shape & HBR
Box + 2 Pan, 1.0 m
Radar Cross Section
0.240 m², Medium (>0.1 m² and < 1m²)

Expand to show TLE details & history
Last TLE update: 15 hours ago

TLE from 15 hours ago
0 HAWK-8A
1 59443U 24066B   26036.94432882  .00002491  00000-0  22343-3 0  9993
2 59443  45.5924 234.9215 0002377  78.2208 281.8940 14.98626101100144
Epoch: 2026-02-05T22:39Z
TLE epoch observation values (Epoch: 2026-02-05T22:39:50.010Z)
Latitude
0.00005°
Longitude
118.87388°
Altitude
570.864 km
Speed
7.577 km/s
True Right ascension
15h 39m 41s
True Declination
0° 00' 00"
Sunlit
Object was in daylight at epoch
Visualization orbit readout
Latitude
Unknown
Longitude
Unknown
Altitude
Unknown
Speed
Unknown
Apparent Right ascension
Unknown
Apparent Declination
Unknown
Sunlit
N/A
Visualization observer readout
Local Sidereal Time
16:07:59
Azimuth
Unknown
Elevation
Unknown
Doppler factor
Unknown
Orbital elements
Apogee altitude
574.283 km
Perigee altitude
570.979 km
Semi-major axis
6,950.768 km
Eccentricity
0.00024
Inclination
45.5924°
RAAN
234.9215°
Arg. of periapsis
78.2208°
True anomaly
281.86734°
Mean anomaly
281.894°
Eccentric anomaly
281.88067°
Mean motion
3.74536 °/min
Orbital period
96.12 mins
BSTAR
0.00022343
Loading maneuver chart data...
Computing Atmospheric mass density...
Loading historical data...
Loading historical data...
Loading historical data...
Loading historical data...
Loading historical data...
Loading historical data...
Loading historical data...

Documentation

Showing up to 5 results
|